This is the latest recevied weather packets stored in our database for station/object IW3HBX-13. If no packets are shown the sender has not sent any weather packets the latest 10 day(s).
| Time | Temp. | Humidity | Pressure | Rain* | Wind** | Luminosity | Snow |
|---|---|---|---|---|---|---|---|
| 1777876207 | 18.33° C | 61% | 1017.9 hPa | 0 mm | - | 263 W/m² | - |
| 1777875847 | 17.78° C | 61% | 1017.8 hPa | 0 mm | - | 239 W/m² | - |
| 1777875489 | 16.67° C | 63% | 1017.8 hPa | 0 mm | - | 216 W/m² | - |
| 1777875128 | 17.22° C | 63% | 1017.9 hPa | 0 mm | - | 200 W/m² | - |
| 1777874767 | 16.67° C | 64% | 1017.8 hPa | 0 mm | - | 178 W/m² | - |
| 1777874047 | 16.11° C | 65% | 1017.7 hPa | 0 mm | - | 112 W/m² | - |
| 1777873689 | 15.56° C | 66% | 1017.6 hPa | 0 mm | - | 126 W/m² | - |
| 1777873327 | 15.56° C | 66% | 1017.7 hPa | 0 mm | - | 102 W/m² | - |
| 1777872969 | 15° C | 67% | 1017.7 hPa | 0 mm | - | 96 W/m² | - |
| 1777872608 | 15° C | 68% | 1017.6 hPa | 0 mm | - | 65 W/m² | - |
| 1777872250 | 15.56° C | 67% | 1017.6 hPa | 0 mm | - | 70 W/m² | - |
| 1777871887 | 15.56° C | 67% | 1017.4 hPa | 0 mm | - | 74 W/m² | - |
| 1777871527 | 15.56° C | 67% | 1017.6 hPa | 0 mm | - | 69 W/m² | - |
| 1777871167 | 15° C | 67% | 1017.5 hPa | 0 mm | - | 63 W/m² | - |
| 1777870447 | 14.44° C | 69% | 1017.5 hPa | 0 mm | - | 42 W/m² | - |
| 1777870089 | 15° C | 68% | 1017.4 hPa | 0 mm | - | 40 W/m² | - |
| 1777869727 | 15° C | 68% | 1017.3 hPa | 0 mm | - | 37 W/m² | - |
| 1777869367 | 14.44° C | 69% | 1017.3 hPa | 0 mm | - | 34 W/m² | - |
| 1777869007 | 14.44° C | 69% | 1017.2 hPa | 0 mm | - | 29 W/m² | - |
| 1777868647 | 13.89° C | 70% | 1017.2 hPa | 0 mm | - | 22 W/m² | - |
| 1777868289 | 13.89° C | 71% | 1017 hPa | 0 mm | - | 16 W/m² | - |
| 1777867927 | 13.89° C | 71% | 1017 hPa | 0 mm | - | 9 W/m² | - |
| 1777867567 | 13.89° C | 72% | 1017.1 hPa | 0 mm | - | 5 W/m² | - |
| 1777866849 | 13.89° C | 72% | 1017.1 hPa | 0 mm | - | 2 W/m² | - |
| 1777866487 | 13.89° C | 72% | 1017 hPa | 0 mm | - | 1 W/m² | - |
* Rain latest hour (hover to see other rain measurements)
** Current wind speed in m/s (hover to see current wind gust speed)